Location: B?ghbhairav
(27.6880°N, 85.7854°E)
Time: 07:13:17
(UTC+00:00)

Daily predictions for brighter satellites

Satellite Brightness Start Highest point End
(mag) Time Altitude Azimuth Time Altitude Azimuth Time Altitude Azimuth
CORIOLIS 4.3 12:04:41 10° SSE 12:10:06 87° WSW 12:15:31 10° NNW
Cosmos 1606 Rocket 3.6 12:06:24 10° N 12:10:44 57° E 12:15:05 10° SSE
H-2A R/B 3.9 12:07:58 10° N 12:11:53 33° WNW 12:15:43 10° SW
NOAA 11 4.3 12:09:14 10° SSE 12:14:43 87° WSW 12:20:15 10° NNW
MOS 1 Rocket 3.2 12:10:46 10° NNE 12:14:56 53° E 12:19:09 10° S
Cosmos 1689 Rocket 3.2 12:14:24 10° NE 12:16:46 24° E 12:19:08 10° SSE
SAR-Lupe-4 4.2 12:17:16 10° NNE 12:20:35 36° E 12:23:53 10° SSE
SJ 16-02 1.4 12:16:23 10° S 12:20:41 57° ESE 12:25:01 10° NNE
Cosmos 2228 3.1 12:19:17 10° N 12:23:33 83° W 12:27:51 10° S
Cosmos 783 Rocket 4.5 12:21:10 10° NNW 12:26:25 86° ENE 12:31:40 10° SSE
SKYMED 2 3.9 12:22:43 10° N 12:27:02 71° WNW 12:31:20 10° SSW
SAR-Lupe-1 4.2 12:28:02 10° NNE 12:31:32 53° E 12:35:00 10° S
COSMOS 2455 4.2 12:29:07 10° SW 12:34:42 39° WNW 12:40:19 10° N
NOSS 2-1 (C) 3.3 12:31:59 10° SSW 12:35:42 49° ESE 12:38:23 14° NE
Abrixas rocket 1.6 12:35:12 10° NW 12:37:50 81° SW 12:40:27 10° SE
Cosmos 44 3.3 12:35:56 10° S 12:40:21 56° ESE 12:44:50 11° NE
Cosmos 1703 3.8 12:37:55 10° SSE 12:41:29 36° E 12:45:03 10° NNE
NOSS 2-1 (D) 3.0 12:37:48 10° SSW 12:41:34 62° ESE 12:44:07 16° NE
Cosmos 2058 Rocket 3.1 12:37:18 10° N 12:41:46 61° E 12:46:12 10° SSE
Cosmos 1943 3.6 12:37:35 10° NNW 12:43:11 66° WSW 12:48:43 10° S
Cosmos 1844 3.7 12:37:40 10° SSW 12:43:16 84° WNW 12:48:57 10° NNE
Okean 1-7 Rocket 4.0 12:38:53 10° SSW 12:43:21 69° W 12:47:53 10° N
Feng Yun 1-1 Rocket 4.1 12:39:34 10° SSE 12:44:56 86° ENE 12:50:24 10° NNW
Cosmos 1340 3.6 12:41:49 10° SSE 12:45:00 27° E 12:46:33 20° NE
Cosmos 1455 2.8 12:43:24 10° NNE 12:46:52 32° E 12:50:19 10° SSE
CZ-2C R/B 3.5 12:42:13 10° NE 12:47:08 32° E 12:52:03 10° SSE
IRS-1C Rocket 4.0 12:42:00 10° SSE 12:47:11 65° ENE 12:52:23 10° N
GPS 2-14 Rocket1 4.2 12:43:35 10° WSW 12:47:12 30° S 12:50:30 12° ESE
Lacrosse 5 3.9 12:46:58 10° NNE 12:47:14 10° NNE 12:47:14 10° NNE
Centaur D-1AR AC-48 3.7 12:29:09 10° WSW 12:47:50 51° S 12:51:45 15° ESE
USA 267 3.2 12:42:08 10° NE 12:48:38 76° SE 12:55:09 10° SW
Cosmos 990 Rocket 4.0 12:45:31 10° S 12:50:36 57° ESE 12:55:42 10° NNE
Cosmos 1939 Rocket 4.0 12:47:45 10° S 12:51:44 47° W 12:55:43 10° NNW
SWIFT 3.8 12:48:43 10° WSW 12:52:29 31° S 12:55:33 14° SE
BREEZE-M DEB (TANK) 2.5 12:50:38 10° NW 12:53:39 69° NE 13:00:03 10° SE
Cosmos 1626 Rocket 3.4 12:51:17 10° S 12:55:36 78° E 12:59:58 10° N
Cosmos 2195 Rocket 4.5 12:55:07 10° S 13:01:17 62° E 13:07:31 10° NNE
CZ-4 R/B 1.3 12:59:30 10° SSE 13:03:37 75° ENE 13:07:42 10° N
ERS-2 4.0 13:02:04 10° NNW 13:05:16 29° WNW 13:08:26 10° SW
Meteor 1-21 Rocket 4.4 13:00:26 10° SSW 13:05:56 73° W 13:11:28 10° N
CZ-2C R/B 3.3 13:01:00 10° S 13:06:03 73° WSW 13:11:26 10° NNW
Cosmos 1844 Rocket 4.0 13:00:48 10° SW 13:06:04 39° WNW 13:11:20 10° N
Cosmos 1328 3.8 13:02:42 10° S 13:06:38 57° E 13:08:50 24° NNE
H-2A R/B 1.8 13:05:04 10° SSE 13:09:55 65° ENE 13:14:53 10° N
Mugunghwa Rocket 4.3 13:02:52 10° W 13:10:43 84° S 13:14:47 28° E
Cosmos 1627 Rocket 4.4 13:04:45 10° S 13:10:48 66° E 13:16:56 10° NNE
Cosmos 2278 Rocket 2.8 13:09:24 10° SSE 13:14:21 32° ESE 13:14:39 32° E
Okean-O 2.5 13:10:40 10° SSE 13:15:05 89° ENE 13:19:31 10° NNW
Cosmos 1428 Rocket 4.4 13:10:10 10° S 13:16:21 68° E 13:22:36 10° NNE
Cosmos 1758 Rocket 3.7 13:13:08 10° SSE 13:17:19 47° E 13:17:34 47° E
Cosmos 1898 Rocket 3.5 13:13:07 10° SSW 13:18:25 88° WNW 13:22:38 16° NNE
BREEZE-M DEB (TANK) 4.2 13:16:54 10° S 13:18:04 14° SSE 13:18:04 14° SSE
Cosmos 923 Rocket 4.3 13:16:17 10° N 13:21:17 42° ENE 13:21:17 42° ENE
Hubble Space Telescope 0.6 13:18:09 10° W 13:22:17 81° N 13:22:47 67° ENE
Cosmos 2098 Rocket 4.1 13:18:15 10° S 13:24:41 67° E 13:31:58 10° NNE
Cosmos 1092 Rocket 4.2 13:19:53 10° SSW 13:26:05 70° W 13:32:15 10° N
GOES 2 Rocket 4.3 13:19:54 10° W 13:26:36 86° N 13:30:21 37° E
Cosmos 489 Rocket 4.4 13:21:40 10° N 13:28:00 70° ENE 13:34:15 10° SSE
Cosmos 158 Rocket 4.0 13:23:09 10° N 13:28:26 57° ENE 13:31:24 26° SE
CSL-04 Rocket 3.5 13:23:25 10° SSE 13:28:41 63° ENE 13:34:02 10° N
Milstar 3 3.8 13:28:57 10° SW 13:36:29 31° SSE 13:38:18 27° SE
YAOGAN 1 3.6 13:34:11 10° S 13:38:19 46° W 13:42:29 10° NNW
GPS 2-12 Rocket1 4.2 13:35:34 10° WSW 13:39:27 30° S 13:39:37 30° S
DELTA 2 R/B (1) 4.1 13:39:18 10° WNW 13:44:43 56° SW 13:46:34 38° SSE
Helios 1A Rocket 3.9 13:42:05 10° S 13:46:02 47° W 13:50:02 10° NNW
Iridium 4 Rocket 3.9 13:47:22 10° N 13:52:47 63° W 13:57:43 10° SSW
Cosmos 1937 Rocket 4.1 13:48:52 10° SSW 13:54:00 54° WNW 13:56:00 35° NNW
Centaur AC-146 3.7 13:58:19 10° SW 14:00:17 29° SSW 14:00:17 29° SSW
DMSP B5D2-2 4.4 14:03:32 59° NW 14:04:04 62° WNW 14:09:15 10° SSW
ARGOS 4.1 14:02:41 10° S 14:07:47 46° W 14:12:55 10° NNW
ATLAS 2A CENTAUR R/B 4.1 14:22:25 10° WSW 14:50:03 52° S 14:50:03 52° S
Cosmos 2278 Rocket 4.4 14:53:47 10° WSW 14:56:34 21° W 14:56:34 21° W
Atlas Centaur 2 3.8 21:58:14 43° ESE 21:58:14 43° ESE 22:04:00 10° E
CZ-3A R/B 4.0 22:05:17 74° SSW 22:05:45 75° S 22:15:58 10° ESE
FALCON 9 R/B 3.5 22:09:17 36° E 22:09:17 36° E 22:11:17 10° E
CZ-2C R/B 4.4 22:25:14 12° ENE 22:25:14 12° ENE 22:25:34 10° ENE
SJ 16-02 3.7 22:34:38 20° ENE 22:34:46 20° ENE 22:38:00 10° ESE
COSMOS 2428 4.5 22:43:40 22° NNE 22:43:40 22° NNE 22:45:31 10° NNE
Tsikada Rocket 4.4 22:49:29 48° S 22:49:29 48° S 22:53:46 10° S
Meteor 2-5 Rocket 3.8 22:50:10 71° ENE 22:50:22 72° E 22:56:06 10° SSE
OAO 3 Rocket 4.0 22:55:23 48° ESE 22:55:23 48° ESE 22:58:45 10° ESE
USA 267 3.4 22:50:44 10° SSE 22:56:39 54° SW 22:56:39 54° SW
H-2A R/B 3.7 22:53:56 10° SSE 22:56:04 29° SSE 22:56:04 29° SSE
Cosmos 44 3.5 23:04:37 75° S 23:04:37 75° S 23:09:32 10° SSE
ATLAS 2A CENTAUR R/B 4.4 23:05:10 12° SSW 23:06:36 13° S 23:10:04 10° SSE
SL-4 R/B 3.3 23:07:26 32° SE 23:07:33 32° SE 23:10:56 10° ENE
IRIDIUM 103 4.3 23:03:55 10° S 23:09:07 80° E 23:14:20 10° N
Cosmos 1455 Rocket 3.6 23:05:48 10° S 23:10:05 57° E 23:14:22 10° NNE
GPS 2-04 Rocket1 4.1 23:12:25 33° NNE 23:12:25 33° NNE 23:15:38 10° E
Cosmos 540 Rocket 4.1 23:07:36 10° S 23:12:33 54° ESE 23:17:30 10° NNE
ATLAS 3B CENTAUR R/B 4.0 23:09:49 35° WSW 23:13:33 48° SSW 23:30:03 10° SE
IUS R/B (1) 3.6 23:14:55 29° ESE 23:14:55 29° ESE 23:16:13 10° E
Meteor 2-10 4.1 23:08:39 10° S 23:14:21 89° W 23:19:58 10° N
Delta 2 Rocket 4.2 23:19:32 54° WSW 23:20:16 59° SSW 23:25:51 10° SE
Meteor 1-24 Rocket 3.6 23:20:51 34° NNW 23:23:22 71° W 23:29:04 10° S
ATLAS CENTAUR R/B 3.9 23:21:33 10° SSE 23:24:22 20° ESE 23:27:07 10° ENE
IRIDIUM 106 4.2 23:22:15 10° S 23:27:24 65° W 23:32:35 10° N
Cosmos 1844 3.7 23:27:16 41° NW 23:29:08 61° WSW 23:34:47 10° S
Cosmos 1953 3.0 23:26:39 10° S 23:30:33 55° E 23:34:26 10° NNE
OAO 2 Rocket 4.0 23:31:40 34° NNW 23:32:18 35° N 23:36:48 10° ENE
SL-24 R/B 3.6 23:28:43 10° S 23:32:25 84° W 23:33:40 43° NNW
Gbstr 26 Del rocket 4.3 23:28:19 22° SW 23:33:15 75° NW 23:41:17 10° NE
deb Chang Zheng 4 3.3 23:31:13 10° N 23:35:26 68° WNW 23:39:36 10° SSW
ERS-2 3.5 23:32:06 10° SE 23:35:29 38° ENE 23:38:53 10° N
NOSS 0 Rocket 3.9 23:31:40 10° SSW 23:37:46 59° WNW 23:43:51 10° NNE
Aurora 2 Rocket 3.7 23:36:05 26° SW 23:38:45 51° SSE 23:45:25 10° E
Cosmos 1763 Rocket 4.2 23:40:11 31° NW 23:40:11 31° NW 23:43:42 10° N
Cosmos 1513 Rocket 4.4 23:33:04 10° SSW 23:39:23 67° W 23:45:37 10° N
USA 307 3.8 23:36:29 10° SSW 23:40:34 49° SE 23:44:38 10° NE
Meteor PRIRODA 3.4 23:40:48 10° N 23:44:23 67° WNW 23:47:58 10° SSW
Cosmos 841 Rocket 3.3 23:39:37 10° SSW 23:44:43 73° WNW 23:49:51 10° N
OAO 3 Copernicus 4.2 23:43:00 34° WSW 23:45:11 77° NNW 23:50:15 10° ENE
Atlas Centaur 2 3.0 23:40:51 27° W 23:45:43 83° N 23:54:20 10° ENE
SL-16 R/B 3.8 23:43:15 10° SSE 23:48:21 36° ESE 23:53:28 10° NE
USA 308 3.3 23:45:05 10° SSW 23:49:14 61° SE 23:53:24 10° NE
USA 305 3.2 23:45:46 10° SSW 23:49:58 68° SE 23:54:10 10° NE
Cosmos 1844 Rocket 3.5 23:49:28 28° W 23:50:06 28° WSW 23:54:46 10° SSW
Cosmos 1464 Rocket 4.0 23:45:28 10° SSW 23:51:25 54° W 23:57:24 10° N
USA 276 3.0 23:51:23 27° N 23:52:37 43° NE 23:55:36 10° ESE
Cosmos 1898 Rocket 3.7 23:48:36 10° N 23:53:46 72° ENE 23:58:54 10° SSE
